| time (UTC) | temp F | wind direction | speed MPH | gust MPH | rain 1hr in | rain 24hr in | rain mn in | humidity % | barometer mb |
| 20260504034225 | 84 | 163 | 0.0 | 2.0 | 0.00 | 0.00 | 0.00 | 22 | 1008.0 |
| 20260504033723 | 84 | 140 | 3.0 | 5.0 | 0.00 | 0.00 | 0.00 | 22 | 1008.1 |
| 20260504033220 | 84 | 117 | 3.0 | 4.0 | 0.00 | 0.00 | 0.00 | 21 | 1008.0 |
| 20260504032717 | 84 | 64 | 4.0 | 5.0 | 0.00 | 0.00 | 0.00 | 21 | 1008.0 |
| 20260504032214 | 84 | 66 | 2.0 | 4.0 | 0.00 | 0.00 | 0.00 | 21 | 1007.5 |
| 20260504031711 | 85 | 132 | 0.0 | 4.0 | 0.00 | 0.00 | 0.00 | 20 | 1007.8 |
| 20260504031208 | 85 | 49 | 1.0 | 4.0 | 0.00 | 0.00 | 0.00 | 21 | 1007.8 |
| 20260504030704 | 85 | 84 | 2.0 | 5.0 | 0.00 | 0.00 | 0.00 | 20 | 1007.5 |
| 20260504030201 | 86 | 100 | 2.0 | 6.0 | 0.00 | 0.00 | 0.00 | 20 | 1007.3 |
| 20260504025658 | 86 | 112 | 3.0 | 4.0 | 0.00 | 0.00 | 0.00 | 20 | 1007.2 |
| 20260504025154 | 86 | 14 | 2.0 | 5.0 | 0.00 | 0.00 | 0.00 | 20 | 1006.9 |
| 20260504024652 | 86 | 342 | 3.0 | 4.0 | 0.00 | 0.00 | 0.00 | 20 | 1006.8 |
| 20260504024148 | 86 | 95 | 2.0 | 5.0 | 0.00 | 0.00 | 0.00 | 20 | 1006.7 |
| 20260504023645 | 87 | 101 | 1.0 | 6.0 | 0.00 | 0.00 | 0.00 | 19 | 1006.7 |
| 20260504023141 | 87 | 74 | 4.0 | 6.0 | 0.00 | 0.00 | 0.00 | 20 | 1006.5 |
| 20260504022637 | 87 | 76 | 3.0 | 6.0 | 0.00 | 0.00 | 0.00 | 19 | 1006.4 |
| 20260504022133 | 87 | 94 | 0.0 | 5.0 | 0.00 | 0.00 | 0.00 | 19 | 1006.5 |
| 20260504021632 | 88 | 101 | 1.0 | 6.0 | 0.00 | 0.00 | 0.00 | 18 | 1006.3 |
| 20260504021128 | 88 | 45 | 2.0 | 5.0 | 0.00 | 0.00 | 0.00 | 18 | 1006.2 |
| 20260504020625 | 88 | 81 | 2.0 | 8.0 | 0.00 | 0.00 | 0.00 | 18 | 1006.1 |
| 20260504020121 | 88 | 115 | 5.0 | 5.0 | 0.00 | 0.00 | 0.00 | 18 | 1006.3 |
| 20260504015618 | 89 | 110 | 2.0 | 4.0 | 0.00 | 0.00 | 0.00 | 18 | 1005.9 |
| 20260504015114 | 89 | 57 | 3.0 | 5.0 | 0.00 | 0.00 | 0.00 | 18 | 1005.7 |
| 20260504014610 | 89 | 60 | 2.0 | 5.0 | 0.00 | 0.00 | 0.00 | 18 | 1005.7 |
| 20260504014107 | 89 | 58 | 4.0 | 6.0 | 0.00 | 0.00 | 0.00 | 19 | 1005.8 |
| 20260504013605 | 90 | 69 | 3.0 | 9.0 | 0.00 | 0.00 | 0.00 | 19 | 1005.7 |
| 20260504013101 | 91 | 112 | 4.0 | 7.0 | 0.00 | 0.00 | 0.00 | 19 | 1005.8 |
| 20260504012559 | 91 | 87 | 3.0 | 6.0 | 0.00 | 0.00 | 0.00 | 18 | 1005.7 |
| 20260504012057 | 91 | 75 | 2.0 | 9.0 | 0.00 | 0.00 | 0.00 | 18 | 1005.3 |
| 20260504011553 | 91 | 118 | 3.0 | 7.0 | 0.00 | 0.00 | 0.00 | 18 | 1005.6 |
| 20260504011049 | 92 | 87 | 3.0 | 8.0 | 0.00 | 0.00 | 0.00 | 19 | 1005.5 |
| 20260504010545 | 92 | 80 | 7.0 | 9.0 | 0.00 | 0.00 | 0.00 | 18 | 1005.4 |
| 20260504010041 | 94 | 101 | 6.0 | 10.0 | 0.00 | 0.00 | 0.00 | 18 | 1005.4 |
| 20260504005538 | 94 | 71 | 5.0 | 12.0 | 0.00 | 0.00 | 0.00 | 18 | 1005.5 |
| 20260504005036 | 94 | 101 | 3.0 | 10.0 | 0.00 | 0.00 | 0.00 | 17 | 1005.6 |
| 20260504004533 | 94 | 85 | 5.0 | 10.0 | 0.00 | 0.00 | 0.00 | 17 | 1005.9 |
| 20260504004030 | 95 | 86 | 7.0 | 8.0 | 0.00 | 0.00 | 0.00 | 17 | 1005.8 |
| 20260504003526 | 95 | 99 | 5.0 | 11.0 | 0.00 | 0.00 | 0.00 | 17 | 1005.7 |
| 20260504003023 | 95 | 52 | 8.0 | 9.0 | 0.00 | 0.00 | 0.00 | 17 | 1005.4 |
| 20260504002520 | 95 | 57 | 2.0 | 16.0 | 0.00 | 0.00 | 0.00 | 17 | 1005.6 |
| 20260504002018 | 96 | 79 | 3.0 | 12.0 | 0.00 | 0.00 | 0.00 | 17 | 1005.5 |
| 20260504001515 | 96 | 89 | 4.0 | 8.0 | 0.00 | 0.00 | 0.00 | 16 | 1005.4 |
| 20260504001011 | 97 | 82 | 3.0 | 7.0 | 0.00 | 0.00 | 0.00 | 16 | 1005.5 |
| 20260504000509 | 96 | 86 | 5.0 | 9.0 | 0.00 | 0.00 | 0.00 | 17 | 1005.5 |
| 20260504000006 | 96 | 97 | 7.0 | 14.0 | 0.00 | 0.00 | 0.00 | 16 | 1005.4 |
| 20260503235504 | 97 | 113 | 4.0 | 9.0 | 0.00 | 0.00 | 0.00 | 16 | 1005.5 |
| 20260503235000 | 97 | 110 | 4.0 | 9.0 | 0.00 | 0.00 | 0.00 | 16 | 1005.6 |
| 20260503234458 | 97 | 28 | 3.0 | 11.0 | 0.00 | 0.00 | 0.00 | 16 | 1005.5 |
| 20260503233956 | 98 | 121 | 5.0 | 9.0 | 0.00 | 0.00 | 0.00 | 16 | 1005.4 |
| 20260503233452 | 98 | 87 | 4.0 | 12.0 | 0.00 | 0.00 | 0.00 | 16 | 1005.5 |
| 20260503232948 | 99 | 112 | 4.0 | 11.0 | 0.00 | 0.00 | 0.00 | 15 | 1005.3 |
| 20260503232445 | 100 | 82 | 1.0 | 6.0 | 0.00 | 0.00 | 0.00 | 14 | 1005.4 |
| 20260503231943 | 100 | 62 | 2.0 | 6.0 | 0.00 | 0.00 | 0.00 | 15 | 1005.3 |
| 20260503231440 | 100 | 94 | 5.0 | 6.0 | 0.00 | 0.00 | 0.00 | 14 | 1005.5 |
| 20260503230937 | 100 | 111 | 3.0 | 5.0 | 0.00 | 0.00 | 0.00 | 14 | 1005.4 |
| 20260503230434 | 100 | 42 | 2.0 | 7.0 | 0.00 | 0.00 | 0.00 | 15 | 1005.6 |
| 20260503225931 | 99 | 85 | 3.0 | 10.0 | 0.00 | 0.00 | 0.00 | 15 | 1005.7 |
| 20260503225428 | 99 | 100 | 2.0 | 5.0 | 0.00 | 0.00 | 0.00 | 15 | 1005.5 |
| 20260503224924 | 100 | 76 | 2.0 | 7.0 | 0.00 | 0.00 | 0.00 | 15 | 1005.6 |
| 20260503224421 | 100 | 63 | 3.0 | 6.0 | 0.00 | 0.00 | 0.00 | 15 | 1005.8 |
| 20260503223918 | 100 | 54 | 2.0 | 4.0 | 0.00 | 0.00 | 0.00 | 14 | 1005.9 |
| 20260503223416 | 99 | 101 | 6.0 | 7.0 | 0.00 | 0.00 | 0.00 | 15 | 1006.0 |
| 20260503222916 | 99 | 86 | 3.0 | 5.0 | 0.00 | 0.00 | 0.00 | 15 | 1006.2 |
| 20260503222415 | 99 | 94 | 3.0 | 9.0 | 0.00 | 0.00 | 0.00 | 15 | 1006.1 |
| 20260503221913 | 100 | 82 | 4.0 | 9.0 | 0.00 | 0.00 | 0.00 | 15 | 1006.2 |
| 20260503221411 | 100 | 133 | 3.0 | 7.0 | 0.00 | 0.00 | 0.00 | 15 | 1006.4 |
| 20260503220908 | 99 | 83 | 4.0 | 7.0 | 0.00 | 0.00 | 0.00 | 15 | 1006.1 |
| 20260503220404 | 100 | 71 | 2.0 | 3.0 | 0.00 | 0.00 | 0.00 | 16 | 1006.4 |
| 20260503215901 | 99 | 45 | 2.0 | 3.0 | 0.00 | 0.00 | 0.00 | 16 | 1006.6 |
| 20260503215358 | 99 | 75 | 1.0 | 5.0 | 0.00 | 0.00 | 0.00 | 17 | 1006.7 |
| 20260503214855 | 98 | 22 | 2.0 | 4.0 | 0.00 | 0.00 | 0.00 | 16 | 1006.5 |
| 20260503214353 | 98 | 165 | 0.0 | 4.0 | 0.00 | 0.00 | 0.00 | 16 | 1006.9 |
| 20260503213850 | 97 | 71 | 2.0 | 4.0 | 0.00 | 0.00 | 0.00 | 17 | 1006.9 |
| 20260503213348 | 98 | 247 | 0.0 | 2.0 | 0.00 | 0.00 | 0.00 | 17 | 1007.0 |
| 20260503212844 | 96 | 214 | 1.0 | 3.0 | 0.00 | 0.00 | 0.00 | 18 | 1006.9 |
| 20260503212342 | 96 | 15 | 1.0 | 3.0 | 0.00 | 0.00 | 0.00 | 18 | 1007.2 |
| 20260503211839 | 97 | 271 | 1.0 | 4.0 | 0.00 | 0.00 | 0.00 | 17 | 1007.4 |
| 20260503211336 | 98 | 277 | 0.0 | 3.0 | 0.00 | 0.00 | 0.00 | 17 | 1007.3 |
| 20260503210831 | 97 | 95 | 2.0 | 3.0 | 0.00 | 0.00 | 0.00 | 17 | 1007.5 |
| 20260503210329 | 96 | 259 | 2.0 | 4.0 | 0.00 | 0.00 | 0.00 | 17 | 1007.6 |
| 20260503205823 | 97 | 308 | 0.0 | 5.0 | 0.00 | 0.00 | 0.00 | 17 | 1007.9 |
| 20260503205320 | 97 | 298 | 2.0 | 4.0 | 0.00 | 0.00 | 0.00 | 17 | 1007.6 |
| 20260503204817 | 96 | 357 | 2.0 | 6.0 | 0.00 | 0.00 | 0.00 | 18 | 1007.8 |
| 20260503204315 | 95 | 111 | 1.0 | 4.0 | 0.00 | 0.00 | 0.00 | 18 | 1008.2 |
| 20260503203812 | 95 | 193 | 1.0 | 5.0 | 0.00 | 0.00 | 0.00 | 18 | 1008.2 |
| 20260503203309 | 95 | 274 | 3.0 | 3.0 | 0.00 | 0.00 | 0.00 | 18 | 1008.3 |
| 20260503202806 | 96 | 249 | 2.0 | 3.0 | 0.00 | 0.00 | 0.00 | 18 | 1008.5 |
| 20260503202304 | 96 | 335 | 0.0 | 3.0 | 0.00 | 0.00 | 0.00 | 18 | 1008.4 |
| 20260503201801 | 96 | 327 | 1.0 | 3.0 | 0.00 | 0.00 | 0.00 | 18 | 1008.6 |
| 20260503201258 | 96 | 43 | 2.0 | 3.0 | 0.00 | 0.00 | 0.00 | 19 | 1008.4 |
| 20260503200756 | 95 | 146 | 1.0 | 3.0 | 0.00 | 0.00 | 0.00 | 19 | 1008.6 |
| 20260503200251 | 96 | 313 | 2.0 | 5.0 | 0.00 | 0.00 | 0.00 | 18 | 1008.8 |
| 20260503195749 | 95 | 104 | 2.0 | 4.0 | 0.00 | 0.00 | 0.00 | 19 | 1008.8 |
| 20260503195246 | 94 | 358 | 1.0 | 4.0 | 0.00 | 0.00 | 0.00 | 20 | 1008.7 |
| 20260503194743 | 95 | 353 | 2.0 | 3.0 | 0.00 | 0.00 | 0.00 | 21 | 1009.0 |
| 20260503194239 | 95 | 132 | 2.0 | 3.0 | 0.00 | 0.00 | 0.00 | 20 | 1009.2 |
| 20260503193735 | 94 | 85 | 1.0 | 5.0 | 0.00 | 0.00 | 0.00 | 20 | 1009.2 |
| 20260503193231 | 94 | 227 | 1.0 | 2.0 | 0.00 | 0.00 | 0.00 | 21 | 1009.2 |
| 20260503192727 | 94 | 277 | 3.0 | 4.0 | 0.00 | 0.00 | 0.00 | 21 | 1009.2 |
| 20260503192222 | 93 | 126 | 0.0 | 3.0 | 0.00 | 0.00 | 0.00 | 23 | 1009.4 |
| 20260503191719 | 93 | 271 | 1.0 | 5.0 | 0.00 | 0.00 | 0.00 | 23 | 1009.4 |
| 20260503191217 | 93 | 342 | 0.0 | 2.0 | 0.00 | 0.00 | 0.00 | 23 | 1009.6 |
| 20260503190713 | 93 | 307 | 0.0 | 3.0 | 0.00 | 0.00 | 0.00 | 24 | 1009.6 |
| 20260503190210 | 93 | 53 | 0.0 | 3.0 | 0.00 | 0.00 | 0.00 | 24 | 1009.4 |
| 20260503185707 | 93 | 21 | 1.0 | 3.0 | 0.00 | 0.00 | 0.00 | 23 | 1009.9 |
| 20260503185202 | 93 | 326 | 2.0 | 3.0 | 0.00 | 0.00 | 0.00 | 24 | 1009.8 |
| 20260503184657 | 93 | 122 | 2.0 | 3.0 | 0.00 | 0.00 | 0.00 | 24 | 1009.8 |
| 20260503184154 | 93 | 0 | 0.0 | 2.0 | 0.00 | 0.00 | 0.00 | 25 | 1010.0 |
| 20260503183650 | 92 | 130 | 0.0 | 2.0 | 0.00 | 0.00 | 0.00 | 25 | 1010.2 |
| 20260503183148 | 92 | 243 | 2.0 | 3.0 | 0.00 | 0.00 | 0.00 | 25 | 1010.0 |
| 20260503182646 | 91 | 102 | 2.0 | 3.0 | 0.00 | 0.00 | 0.00 | 25 | 1010.1 |
| 20260503182144 | 90 | 20 | 0.0 | 4.0 | 0.00 | 0.00 | 0.00 | 25 | 1010.4 |
| 20260503181640 | 91 | 346 | 0.0 | 2.0 | 0.00 | 0.00 | 0.00 | 25 | 1010.4 |
| 20260503181137 | 89 | 98 | 0.0 | 4.0 | 0.00 | 0.00 | 0.00 | 26 | 1010.4 |
| 20260503180634 | 89 | 218 | 0.0 | 4.0 | 0.00 | 0.00 | 0.00 | 25 | 1010.7 |
| 20260503180132 | 90 | 78 | 2.0 | 3.0 | 0.00 | 0.00 | 0.00 | 26 | 1010.8 |
| 20260503175629 | 89 | 64 | 1.0 | 2.0 | 0.00 | 0.00 | 0.00 | 25 | 1010.6 |
| 20260503175126 | 89 | 259 | 1.0 | 3.0 | 0.00 | 0.00 | 0.00 | 25 | 1010.8 |
| 20260503174622 | 89 | 260 | 2.0 | 4.0 | 0.00 | 0.00 | 0.00 | 25 | 1010.6 |
| 20260503174120 | 89 | 271 | 3.0 | 3.0 | 0.00 | 0.00 | 0.00 | 25 | 1010.7 |
| 20260503173615 | 89 | 271 | 2.0 | 3.0 | 0.00 | 0.00 | 0.00 | 25 | 1010.8 |
| 20260503173111 | 89 | 232 | 2.0 | 3.0 | 0.00 | 0.00 | 0.00 | 25 | 1010.8 |
| 20260503172608 | 89 | 64 | 1.0 | 3.0 | 0.00 | 0.00 | 0.00 | 26 | 1010.9 |
| 20260503172106 | 88 | 313 | 0.0 | 3.0 | 0.00 | 0.00 | 0.00 | 26 | 1011.0 |
| 20260503171602 | 88 | 279 | 1.0 | 3.0 | 0.00 | 0.00 | 0.00 | 26 | 1011.0 |
| 20260503171100 | 88 | 287 | 1.0 | 3.0 | 0.00 | 0.00 | 0.00 | 26 | 1010.9 |
| 20260503170555 | 88 | 106 | 1.0 | 2.0 | 0.00 | 0.00 | 0.00 | 26 | 1010.8 |
| 20260503150948 | 82 | 282 | 1.0 | 5.0 | 0.00 | 0.00 | 0.00 | 31 | 1010.7 |
| 20260503150445 | 81 | 290 | 3.0 | 6.0 | 0.00 | 0.00 | 0.00 | 31 | 1010.8 |
| 20260503131338 | 80 | 274 | 2.0 | 4.0 | 0.00 | 0.00 | 0.00 | 32 | 1010.0 |
| 20260503130835 | 79 | 260 | 1.0 | 5.0 | 0.00 | 0.00 | 0.00 | 32 | 1010.1 |
| 20260503130333 | 80 | 286 | 1.0 | 4.0 | 0.00 | 0.00 | 0.00 | 32 | 1010.0 |
| 20260503110726 | 80 | 274 | 3.0 | 7.0 | 0.00 | 0.00 | 0.00 | 28 | 1009.6 |
| 20260503110224 | 80 | 257 | 3.0 | 5.0 | 0.00 | 0.00 | 0.00 | 28 | 1009.8 |
| 20260503100150 | 80 | 277 | 2.0 | 4.0 | 0.00 | 0.00 | 0.00 | 25 | 1009.9 |
| 20260503090109 | 80 | 269 | 3.0 | 3.0 | 0.00 | 0.00 | 0.00 | 24 | 1009.8 |
| 20260503081544 | 80 | 255 | 0.0 | 3.0 | 0.00 | 0.00 | 0.00 | 25 | 1010.0 |
| 20260503081042 | 79 | 249 | 0.0 | 2.0 | 0.00 | 0.00 | 0.00 | 25 | 1010.2 |
| 20260503080538 | 78 | 265 | 0.0 | 2.0 | 0.00 | 0.00 | 0.00 | 26 | 1010.3 |
| 20260503072512 | 78 | 284 | 0.0 | 1.0 | 0.00 | 0.00 | 0.00 | 26 | 1010.2 |
| 20260503072009 | 78 | 257 | 0.0 | 1.0 | 0.00 | 0.00 | 0.00 | 27 | 1010.4 |
| 20260503071506 | 77 | 284 | 0.0 | 2.0 | 0.00 | 0.00 | 0.00 | 27 | 1010.2 |
| 20260503071002 | 76 | 245 | 0.0 | 0.0 | 0.00 | 0.00 | 0.00 | 27 | 1010.3 |
| 20260503070459 | 77 | 284 | 0.0 | 0.0 | 0.00 | 0.00 | 0.00 | 27 | 1010.2 |
| 20260503054923 | 77 | 245 | 0.0 | 0.0 | 0.00 | 0.00 | 0.00 | 27 | 1009.6 |
| 20260503054419 | 77 | 245 | 0.0 | 0.0 | 0.00 | 0.00 | 0.00 | 26 | 1009.7 |
| 20260503053917 | 77 | 81 | 0.0 | 0.0 | 0.00 | 0.00 | 0.00 | 28 | 1009.8 |
| 20260503053415 | 77 | 244 | 0.0 | 0.0 | 0.00 | 0.00 | 0.00 | 27 | 1009.9 |
| 20260503052910 | 77 | 245 | 0.0 | 0.0 | 0.00 | 0.00 | 0.00 | 28 | 1009.6 |
| 20260503052408 | 77 | 299 | 0.0 | 0.0 | 0.00 | 0.00 | 0.00 | 27 | 1009.8 |
| 20260503051904 | 77 | 232 | 0.0 | 1.0 | 0.00 | 0.00 | 0.00 | 26 | 1009.7 |
| 20260503051400 | 77 | 134 | 0.0 | 0.0 | 0.00 | 0.00 | 0.00 | 26 | 1009.8 |
| 20260503050858 | 77 | 299 | 0.0 | 0.0 | 0.00 | 0.00 | 0.00 | 26 | 1009.5 |
| 20260503050354 | 78 | 65 | 0.0 | 0.0 | 0.00 | 0.00 | 0.00 | 27 | 1009.8 |
| 20260503045851 | 78 | 65 | 0.0 | 0.0 | 0.00 | 0.00 | 0.00 | 26 | 1009.7 |
| 20260503045349 | 78 | 104 | 0.0 | 0.0 | 0.00 | 0.00 | 0.00 | 26 | 1009.6 |
| 20260503044845 | 79 | 104 | 0.0 | 0.0 | 0.00 | 0.00 | 0.00 | 25 | 1009.8 |
| 20260503044342 | 80 | 104 | 0.0 | 0.0 | 0.00 | 0.00 | 0.00 | 25 | 1009.6 |
| 20260503043839 | 80 | 104 | 0.0 | 0.0 | 0.00 | 0.00 | 0.00 | 24 | 1009.7 |
| 20260503043336 | 80 | 104 | 0.0 | 1.0 | 0.00 | 0.00 | 0.00 | 25 | 1009.5 |
| 20260503042832 | 80 | 119 | 0.0 | 0.0 | 0.00 | 0.00 | 0.00 | 25 | 1009.3 |
| 20260503042329 | 79 | 113 | 0.0 | 1.0 | 0.00 | 0.00 | 0.00 | 25 | 1009.4 |
| 20260503041825 | 79 | 150 | 0.0 | 0.0 | 0.00 | 0.00 | 0.00 | 25 | 1009.2 |
| 20260503041323 | 79 | 150 | 0.0 | 0.0 | 0.00 | 0.00 | 0.00 | 24 | 1009.3 |
| 20260503040820 | 80 | 70 | 0.0 | 0.0 | 0.00 | 0.00 | 0.00 | 26 | 1009.2 |
| 20260503040318 | 80 | 132 | 0.0 | 0.0 | 0.00 | 0.00 | 0.00 | 23 | 1009.0 |
| 20260503035815 | 80 | 132 | 0.0 | 0.0 | 0.00 | 0.00 | 0.00 | 24 | 1009.1 |
| 20260503035312 | 80 | 132 | 0.0 | 0.0 | 0.00 | 0.00 | 0.00 | 24 | 1009.0 |
| 20260503034809 | 81 | 132 | 0.0 | 0.0 | 0.00 | 0.00 | 0.00 | 24 | 1008.9 |